This is the latest recevied weather packets stored in our database for station/object WW6Q. If no packets are shown the sender has not sent any weather packets the latest 10 day(s).
| Time | Temp. | Humidity | Pressure | Rain* | Wind** | Luminosity | Snow |
|---|---|---|---|---|---|---|---|
| 1787782939 | 21.67° C | 90% | 1011.5 hPa | 0 mm | - | 71 W/m² | - |
| 1787782638 | 21.67° C | 91% | 1011.5 hPa | 0 mm | - | 79 W/m² | - |
| 1787782334 | 21.67° C | 91% | 1011.3 hPa | 0 mm | - | 88 W/m² | - |
| 1787782029 | 21.11° C | 91% | 1011.4 hPa | 0 mm | - | 84 W/m² | - |
| 1787781724 | 21.11° C | 94% | 1011.4 hPa | 1.78 mm | - | 94 W/m² | - |
| 1787781422 | 20.56° C | 95% | 1011.7 hPa | 1.78 mm | - | 175 W/m² | - |
| 1787781121 | 20° C | 95% | 1011.5 hPa | 1.27 mm | - | 214 W/m² | - |
| 1787780821 | 19.44° C | 94% | 1011.4 hPa | 7.11 mm | - | 187 W/m² | - |
| 1787780521 | 20° C | 92% | 1011.6 hPa | 15.49 mm | - | 69 W/m² | - |
| 1787780216 | 20° C | 90% | 1011.9 hPa | 10.67 mm | - | 40 W/m² | - |
| 1787779912 | 20.56° C | 91% | 1012.2 hPa | 10.67 mm | - | 34 W/m² | - |
| 1787779612 | 21.11° C | 93% | 1012.1 hPa | 22.86 mm | - | 27 W/m² | - |
| 1787779312 | 21.67° C | 92% | 1012.1 hPa | 21.08 mm | - | 16 W/m² | - |
| 1787779011 | 22.78° C | 89% | 1012.1 hPa | 11.94 mm | - | 10 W/m² | - |
| 1787778708 | 23.33° C | 87% | 1012 hPa | 7.87 mm | - | 22 W/m² | - |
| 1787778403 | 23.89° C | 82% | 1012 hPa | 3.05 mm | - | 14 W/m² | - |
| 1787778099 | 23.89° C | 79% | 1011.4 hPa | 0 mm | - | 21 W/m² | - |
| 1787777798 | 24.44° C | 77% | 1011.2 hPa | 0 mm | - | 23 W/m² | - |
| 1787777495 | 25° C | 74% | 1011.2 hPa | 0 mm | - | 23 W/m² | - |
| 1787777189 | 25° C | 73% | 1011 hPa | 0 mm | - | 25 W/m² | - |
| 1787776888 | 25° C | 73% | 1010.8 hPa | 0 mm | - | 27 W/m² | - |
| 1787776587 | 25° C | 73% | 1010.7 hPa | 0 mm | - | 32 W/m² | - |
| 1787776286 | 25° C | 73% | 1010.8 hPa | 0 mm | - | 37 W/m² | - |
* Rain latest hour (hover to see other rain measurements)
** Current wind speed in m/s (hover to see current wind gust speed)